LiveATC.Net - Listen to live air traffic control over the Internet!
Airport/ARTCC Code
Frequency Search
(e.g., 124.400, 128.75)
Site-wide search
 


Browse Feeds
Top 50 Feeds
Coverage Map
Bad Weather Areas

LiveATC FAQ
Offer LiveATC feed
Contact LiveATC.net
Press Inquiries

LiveATC on iPhone
LiveATC on Android

Windows Phone
Windows 8/10

LiveATC Mobile
(Mobile browser)

ATC Audio Archives
Interesting Recordings

LiveATC Forums

Home Page
About LiveATC.net
Make a Donation
Terms of Use
Privacy Policy

Canadian Air Freqs

AIRMETs/SIGMETs

FAA Airport Status
Nat'l Airspace Status
Arrival Demand Charts


Server Software By:
Icecast.org
Liquidsoap

Select an area of interest:
U.S. Feeds: Class B Airports | Class C Airports | Class D/Other Airports | ARTCC (Centers)
International Feeds: Canada | Europe | Oceania | Asia | South America | North/Central America | Africa
Misc Feeds: HF Feeds
Search by ICAO/IATA airport code:   (e.g., kbos, kjfk, lax, eham, etc.)


Currently Available Live Feeds: 2563
Status Updated: Thu Jun 04 2020 02:36:38 UTC


NOTICE

Unauthorized use prohibited. See LiveATC.net Terms of Service

Africa Airport Feeds

 

FIMP Twr/App/Ctr #1
Plaine Magnien, Mauritius

Feed Status: DOWN
Offline since: 2020-05-28 10:32:39 UTC

FIMP 040200Z 12010KT 9999 SCT017 22/14 Q1021

FIMP Approach: 119.100
FIMP Tower: 118.100
FMEE Approach/Departure: 127.200
Mauritius Centre: 129.300

FIMP Twr/App/Ctr #2 (Archives)
Plaine Magnien, Mauritius

Feed Status: UP
Listen in your browser - HTML5 player(in browser, HTML5)
Click here to listen with your own player(launches your MP3 player)

FIMP 040200Z 12010KT 9999 SCT017 22/14 Q1021


Listeners: 0 out of 884 total

FIMP Approach: 119.100
FIMP Tower: 118.100
Mauritius Centre: 129.300

FMEE Tower
Sainte-Marie, Reunion

Feed Status: DOWN
Offline since: 2020-06-03 06:10:05 UTC

FMEE 040200Z AUTO 15013KT CAVOK 21/14 Q1021 NOSIG

Gillot Tower: 118.400

FMEP Info (Archives)
Saint-Pierre, Reunion

Feed Status: UP
Listen in your browser - HTML5 player(in browser, HTML5)
Click here to listen with your own player(launches your MP3 player)

FMEP 040200Z AUTO 06009KT 040V100 9999 FEW030 18/10 Q1021


Listeners: 0 out of 884 total

Saint-Pierre Info: 122.400

FMMI Twr/App/Center (Archives)
Antananarivo, Madagascar

Feed Status: UP
Listen in your browser - HTML5 player(in browser, HTML5)
Click here to listen with your own player(launches your MP3 player)

FMMI 040200Z 13003KT 9999 FEW017 10/10 Q1024 BECMG 4000 BR


Listeners: 0 out of 884 total

Ivato Approach: 125.700
Ivato Tower: 120.100
Tana Control: 128.900

HAAB Approach (Archives)
Addis Ababa, Ethiopia

Feed Status: UP
Listen in your browser - HTML5 player(in browser, HTML5)
Click here to listen with your own player(launches your MP3 player)

HAAB 040000KT 30004KT 9999 FEW025 13/10 Q1026


Listeners: 0 out of 884 total

Bole Approach: 119.700